Zurück zum Katalog

FENGYUN 1C DEB

AktivSSO
NORAD 36678·DEBRIS·🇨🇳 China

Gestartet May 10, 1999 von Taiyuan Satellite Launch Center

Loading…

Nächste Überflüge (nächste 24 Stunden)

TLE

AktuellSource: Space-Track

Epoche: Sep 13, 2026, 04:22 UTC

1 36678U 99025DYY 26256.18238464  .00000391  00000-0  12626-3 0  9995
2 36678  98.3221 234.7867 0148911 247.8412 110.6915 14.38536225689348

Verfolge FENGYUN 1C DEB in Echtzeit mit AllMySat

Download on the App Store